This is the latest recevied weather packets stored in our database for station/object KN6WGU. If no packets are shown the sender has not sent any weather packets the latest 10 day(s).
| Time | Temp. | Humidity | Pressure | Rain* | Wind** | Luminosity | Snow |
|---|---|---|---|---|---|---|---|
| 1788047249 | 23.89° C | 70% | 1013.1 hPa | 0 mm | - | 12 W/m² | - |
| 1788046944 | 23.89° C | 70% | 1013.2 hPa | 0 mm | - | 13 W/m² | - |
| 1788046642 | 24.44° C | 69% | 1013.3 hPa | 0 mm | - | 14 W/m² | - |
| 1788046338 | 24.44° C | 69% | 1013.3 hPa | 0 mm | - | 19 W/m² | - |
| 1788046035 | 24.44° C | 66% | 1013.3 hPa | 0 mm | - | 21 W/m² | - |
| 1788045731 | 24.44° C | 66% | 1013.5 hPa | 0 mm | - | 24 W/m² | - |
| 1788045426 | 24.44° C | 65% | 1013.2 hPa | 0 mm | - | 29 W/m² | - |
| 1788045121 | 24.44° C | 64% | 1013.3 hPa | 0 mm | - | 29 W/m² | - |
| 1788044820 | 25° C | 64% | 1013.2 hPa | 0 mm | - | 36 W/m² | - |
| 1788044515 | 25° C | 65% | 1013.5 hPa | 0 mm | - | 45 W/m² | - |
| 1788044209 | 25° C | 65% | 1013.6 hPa | 0 mm | - | 46 W/m² | - |
| 1788043905 | 25.56° C | 64% | 1013.5 hPa | 0 mm | - | 55 W/m² | - |
| 1788043600 | 25.56° C | 65% | 1013.6 hPa | 0 mm | - | 72 W/m² | - |
| 1788043295 | 25.56° C | 64% | 1013.5 hPa | 0 mm | - | 71 W/m² | - |
| 1788042990 | 25.56° C | 66% | 1013.7 hPa | 0 mm | - | 62 W/m² | - |
| 1788042686 | 25.56° C | 64% | 1013.7 hPa | 0 mm | - | 65 W/m² | - |
| 1788042385 | 26.11° C | 64% | 1013.8 hPa | 0 mm | - | 68 W/m² | - |
| 1788042080 | 26.11° C | 63% | 1013.7 hPa | 0 mm | - | 74 W/m² | - |
| 1788041780 | 26.11° C | 61% | 1013.6 hPa | 0 mm | - | 81 W/m² | - |
| 1788041475 | 26.11° C | 60% | 1013.7 hPa | 0 mm | - | 90 W/m² | - |
| 1788041170 | 26.67° C | 58% | 1013.9 hPa | 0 mm | - | 90 W/m² | - |
| 1788040864 | 26.67° C | 58% | 1013.8 hPa | 0 mm | - | 103 W/m² | - |
| 1788040563 | 26.11° C | 60% | 1013.6 hPa | 0 mm | - | 113 W/m² | - |
| 1788040259 | 26.11° C | 60% | 1013.6 hPa | 0 mm | - | 117 W/m² | - |
| 1788039957 | 26.11° C | 59% | 1013.7 hPa | 0 mm | - | 112 W/m² | - |
* Rain latest hour (hover to see other rain measurements)
** Current wind speed in m/s (hover to see current wind gust speed)